FW1302 Weather Reports


time (UTC)temp
F
wind
direction
speed
knots
gust
knots
rain 1hr
in
rain 24hr
in
rain mn
in
humidity
%
barometer
mb
20260902070112 63 239 5.2 7.8 0.00 0.00 0.00 73 1022.1
20260902065124 63 229 5.2 7.8 0.00 0.00 0.00 74 1022.2
20260902064223 63 245 7.8 9.6 0.00 0.00 0.00 74 1022.4
20260902063224 63 247 8.7 11.3 0.00 0.00 0.00 74 1022.4
20260902062228 63 243 9.6 13.0 0.00 0.00 0.00 71 1022.4
20260902060327 65 255 12.2 19.1 0.00 0.00 0.00 67 1022.2
20260902055325 65 252 9.6 12.2 0.00 0.00 0.00 67 1022.2
20260902054326 65 233 7.8 11.3 0.00 0.00 0.00 68 1022.4
20260902053424 65 238 8.7 11.3 0.00 0.00 0.00 68 1022.2
20260902051524 65 244 7.8 9.6 0.00 0.00 0.00 67 1022.2
20260902051426 65 245 8.7 13.0 0.00 0.00 0.00 67 1022.1
20260902050525 65 227 9.6 13.0 0.00 0.00 0.00 66 1021.9
20260902045526 65 228 7.8 14.8 0.00 0.00 0.00 66 1022.0
20260902044527 66 229 10.4 13.9 0.00 0.00 0.00 65 1021.8
20260902043624 66 226 7.8 10.4 0.00 0.00 0.00 65 1021.8
20260902042723 66 237 7.0 9.6 0.00 0.00 0.00 65 1021.9
20260902035725 67 226 6.1 9.6 0.00 0.00 0.00 62 1021.7
20260902033725 67 238 7.8 11.3 0.00 0.00 0.00 62 1021.2
20260902032726 67 238 7.8 9.6 0.00 0.00 0.00 62 1021.4
20260902032624 67 241 9.6 10.4 0.00 0.00 0.00 62 1021.4
20260902031625 67 241 11.3 14.8 0.00 0.00 0.00 62 1021.3
20260902030626 67 240 7.8 11.3 0.00 0.00 0.00 61 1021.5
20260902025626 67 242 11.3 14.8 0.00 0.00 0.00 61 1021.3
20260902024625 67 238 7.8 11.3 0.00 0.00 0.00 62 1021.2
20260902023724 67 232 7.8 12.2 0.00 0.00 0.00 63 1021.2
20260902022725 67 225 7.8 10.4 0.00 0.00 0.00 64 1021.2
20260902021727 68 225 6.1 8.7 0.00 0.00 0.00 65 1021.0
20260902020824 68 230 7.8 11.3 0.00 0.00 0.00 63 1021.1
20260902015826 68 228 8.7 11.3 0.00 0.00 0.00 64 1021.0
20260902014827 68 229 7.0 7.8 0.00 0.00 0.00 63 1021.0
20260902013925 68 229 9.6 13.0 0.00 0.00 0.00 63 1021.2
20260902012926 68 225 9.6 12.2 0.00 0.00 0.00 64 1021.3
20260902012023 68 225 8.7 12.2 0.00 0.00 0.00 62 1021.1
20260902011123 68 216 6.1 9.6 0.00 0.00 0.00 62 1020.9
20260902010125 69 232 9.6 12.2 0.00 0.00 0.00 63 1020.7
20260902004225 68 220 9.6 12.2 0.00 0.00 0.00 62 1020.9
20260902003225 68 225 9.6 12.2 0.00 0.00 0.00 62 1020.7
20260902002225 68 230 8.7 11.3 0.00 0.00 0.00 62 1020.8
20260902002127 68 226 7.8 12.2 0.00 0.00 0.00 63 1020.8
20260902000226 68 220 10.4 14.8 0.00 0.00 0.00 61 1020.8
20260901235323 69 235 7.8 9.6 0.00 0.00 0.00 60 1020.8
20260901234324 69 224 10.4 13.0 0.00 0.00 0.00 60 1020.8
20260901233424 69 228 8.7 12.2 0.00 0.00 0.00 61 1020.9
20260901232427 68 225 11.3 15.6 0.00 0.00 0.00 61 1021.0
20260901230424 68 220 7.0 10.4 0.00 0.00 0.00 62 1021.1
20260901223425 68 226 11.3 14.8 0.00 0.00 0.00 64 1021.4
20260901221425 67 222 10.4 14.8 0.00 0.00 0.00 65 1021.4
20260901220425 67 214 14.8 18.2 0.00 0.00 0.00 66 1021.3
20260901214425 67 210 8.7 11.3 0.00 0.00 0.00 65 1021.3
20260901213523 67 223 7.8 10.4 0.00 0.00 0.00 65 1021.4
20260901212524 67 211 10.4 14.8 0.00 0.00 0.00 66 1021.4
20260901211525 66 219 7.8 14.8 0.00 0.00 0.00 65 1021.5
20260901210526 67 229 7.0 8.7 0.00 0.00 0.00 65 1021.5
20260901205625 66 230 7.8 10.4 0.00 0.00 0.00 65 1021.4
20260901204723 66 224 7.0 8.7 0.00 0.00 0.00 66 1021.5
20260901203725 66 215 4.3 7.0 0.00 0.00 0.00 67 1021.7
20260901202725 66 226 7.0 10.4 0.00 0.00 0.00 67 1021.8
20260901201724 66 221 7.8 11.3 0.00 0.00 0.00 67 1021.8
20260901200724 66 221 6.1 8.7 0.00 0.00 0.00 67 1021.8
20260901195726 65 203 5.2 9.6 0.00 0.00 0.00 69 1022.1
20260901194823 65 225 8.7 10.4 0.00 0.00 0.00 67 1022.0
20260901193825 65 224 7.0 9.6 0.00 0.00 0.00 67 1022.2
20260901190923 65 243 7.0 9.6 0.00 0.00 0.00 69 1022.5
20260901185926 65 230 6.1 9.6 0.00 0.00 0.00 69 1022.5
20260901185025 64 231 7.0 12.2 0.00 0.00 0.00 71 1022.5
20260901184026 64 228 6.1 8.7 0.00 0.00 0.00 71 1022.6
20260901183025 64 233 7.8 10.4 0.00 0.00 0.00 70 1022.6
20260901182024 64 239 7.8 10.4 0.00 0.00 0.00 70 1022.5
20260901181026 64 239 7.8 11.3 0.00 0.00 0.00 71 1022.6
20260901175026 63 246 10.4 14.8 0.00 0.00 0.00 72 1022.5
20260901174125 63 227 4.3 7.8 0.00 0.00 0.00 72 1022.8
20260901173127 63 245 9.6 12.2 0.00 0.00 0.00 73 1022.7
20260901172224 63 235 7.0 10.4 0.00 0.00 0.00 74 1022.7
20260901171226 63 252 7.0 8.7 0.00 0.00 0.00 73 1022.7
20260901170226 62 250 7.8 10.4 0.00 0.00 0.00 72 1022.6
20260901165223 62 239 7.0 9.6 0.00 0.00 0.00 72 1022.6
20260901164225 62 229 7.0 10.4 0.00 0.00 0.00 72 1022.4
20260901163323 62 237 6.1 10.4 0.00 0.00 0.00 74 1022.7
20260901162323 62 224 7.0 8.7 0.00 0.00 0.00 73 1022.7
20260901162226 62 237 7.8 10.4 0.00 0.00 0.00 74 1022.7
20260901160226 62 224 5.2 7.0 0.00 0.00 0.00 74 1022.6
20260901155224 62 227 6.1 7.8 0.00 0.00 0.00 75 1022.7
20260901154226 61 230 5.2 6.1 0.00 0.00 0.00 75 1022.7
20260901153224 61 223 6.1 9.6 0.00 0.00 0.00 77 1022.7
20260901152226 61 224 5.2 7.8 0.00 0.00 0.00 77 1022.8
20260901151224 61 218 5.2 7.0 0.00 0.00 0.00 76 1022.7
20260901145324 61 236 7.8 11.3 0.00 0.00 0.00 76 1022.6
20260901144323 61 231 6.1 8.7 0.00 0.00 0.00 75 1022.6
20260901143324 62 230 7.0 9.6 0.00 0.00 0.00 74 1022.5
20260901142324 62 225 5.2 7.0 0.00 0.00 0.00 74 1022.5
20260901141324 62 242 5.2 7.8 0.00 0.00 0.00 74 1022.4
20260901140338 61 240 5.2 7.0 0.00 0.00 0.00 75 1022.4
20260901135424 61 236 6.1 8.7 0.00 0.00 0.00 74 1022.4
20260901134427 62 225 7.8 10.4 0.00 0.00 0.00 74 1022.2
20260901133525 62 246 8.7 11.3 0.00 0.00 0.00 75 1022.1
20260901132625 61 222 7.0 9.6 0.00 0.00 0.00 74 1022.1
20260901131625 62 226 6.1 9.6 0.00 0.00 0.00 74 1022.0
20260901131524 62 233 7.8 11.3 0.00 0.00 0.00 74 1022.0
20260901124625 62 225 7.8 11.3 0.00 0.00 0.00 75 1021.9
20260901122626 62 237 9.6 16.5 0.00 0.00 0.00 74 1021.7
20260901121723 62 246 9.6 13.0 0.00 0.00 0.00 74 1021.7
20260901120724 62 223 9.6 16.5 0.00 0.00 0.00 74 1021.6
20260901115725 63 225 10.4 13.0 0.00 0.00 0.00 73 1021.4
20260901113823 63 227 10.4 13.9 0.00 0.00 0.00 72 1021.4
20260901112825 63 225 9.6 11.3 0.00 0.00 0.00 72 1021.3
20260901111823 63 227 7.8 13.9 0.00 0.00 0.00 72 1021.2
20260901110826 64 225 8.7 12.2 0.00 0.00 0.00 71 1021.2
20260901105925 64 236 11.3 16.5 0.00 0.00 0.00 70 1021.0
20260901104925 64 225 10.4 16.5 0.00 0.00 0.00 70 1021.0
20260901103926 64 228 8.7 12.2 0.00 0.00 0.00 70 1020.9
20260901102927 64 233 7.0 10.4 0.00 0.00 0.00 69 1021.0
20260901101925 65 246 7.8 12.2 0.00 0.00 0.00 68 1020.9
20260901100925 65 228 12.2 15.6 0.00 0.00 0.00 67 1020.7
20260901095923 66 228 10.4 13.9 0.00 0.00 0.00 66 1020.5
20260901093923 67 225 11.3 14.8 0.00 0.00 0.00 64 1020.2
20260901093022 67 226 9.6 12.2 0.00 0.00 0.00 64 1020.3
20260901092024 67 231 8.7 12.2 0.00 0.00 0.00 62 1020.2
20260901091123 68 225 13.9 18.2 0.00 0.00 0.00 62 1020.1
20260901090124 68 227 10.4 12.2 0.00 0.00 0.00 60 1020.0
20260901084123 69 226 9.6 13.0 0.00 0.00 0.00 59 1019.7
20260901084024 69 235 10.4 14.8 0.00 0.00 0.00 59 1019.5
20260901083025 70 228 7.0 10.4 0.00 0.00 0.00 59 1019.8
20260901082026 70 231 7.8 11.3 0.00 0.00 0.00 58 1019.5
20260901081025 70 236 11.3 17.4 0.00 0.00 0.00 58 1019.5
20260901075024 71 227 8.7 11.3 0.00 0.00 0.00 57 1019.4
20260901074027 71 226 10.4 13.0 0.00 0.00 0.00 57 1019.4
20260901073025 70 224 7.8 10.4 0.00 0.00 0.00 58 1019.2
20260901072926 70 223 7.8 9.6 0.00 0.00 0.00 58 1019.2
20260901071925 69 220 5.2 7.8 0.00 0.00 0.00 60 1019.2
20260901071023 66 199 3.5 8.7 0.00 0.00 0.00 67 1019.2